Voltar ao catálogo

GAOFEN 11

AtivoCiênciaSSO
NORAD 43585·PAYLOAD·🇨🇳 China

Lançado Jul 31, 2018 de Taiyuan Satellite Launch Center

Loading…

Próximas Passagens (próximas 24 horas)

TLE

AtualizadoSource: Space-Track

Época: Sep 14, 2026, 22:05 UTC

1 43585U 18063A   26257.92043461  .00012243  00000-0  16650-3 0  9997
2 43585  97.1193 324.6523 0003779  25.1993 334.9448 15.57716297454308

Acompanhe GAOFEN 11 em tempo real com AllMySat

Download on the App Store